"Pseudo-MPEC" for P10WzvL

Created 2020 Feb 24 2:07:10 UT using Find_Orb

Click here for an explanation of pseudo-MPECs

 
 Astrometry: 
     P10WzvL  C2020 01 22fPGgPMeF'j7l-1Hu2G3@_]4Qmd0LD0lNWZXAstrometry_yZ+%vrF51
     P10WzvL  C2020 01 222a@.NAunZX\fKFvQE,DMX,WW@b7E9/X)@($;redacted;v8sY$xYF51
     P10WzvL  C2020 01 22PXat,Y,l6c2clickRXEcjFd($here%YRlAforP%uZ^6.Do:j_#lWF51
     P10WzvL  C2020 01 2247tXexplanationk@BNxG-;SS\^XWpnM:=g*WEaIVu:QT`Kv4JxuF51
     P10WzvL  C2020 01 24.34228 11 15 25.12 -20 54 53.1    ~1O8b 21.5 GVNEOCPI52
     P10WzvL  C2020 01 24.34478 11 15 27.33 -20 54 59.5    ~1O8b 20.9 GVNEOCPI52
     P10WzvL  C2020 01 24.34603 11 15 28.36 -20 55 02.1    ~1O8b 21.6 GVNEOCPI52

Station data:
(F51) Pan-STARRS 1, Haleakala  (N20.707235 W156.255910)  US/Hawaii.
   Observers N. Primak, A. Schultz, S. Watters, J. Thiel, T. Goggia. Measurer
   PS1 Science Consortium. 1.8-m Ritchey-Chrétien + CCD.
(I52) Steward Observatory, Mt. Lemmon Station  (N32.442547 W110.788920)
   US/Arizona.  Observers T. A. Pruyne, B. M. Africano, E. J. Christensen, G.
   A. Farneth, D. C. Fuls, A. R. Gibbs, A. D. Grauer, H. Gröller, J. A.
   Johnson, R. A. Kowalski, S. M. Larson, G. J. Leonard, D. Rankin, R. L.
   Seaman, F. C. Shelly. 1.0-m reflector + CCD.

Orbital elements:  P10WzvL
   Perihelion 2020 Mar 4.856630 TT = 20:33:32 (JD 2458913.356630)
Epoch 2020 Jan 24.0 TT = JDT 2458872.5   Earth MOID: 0.0086   Ve: 0.0839
M 357.74933027                      Me: 0.0309                AutoNEOCP
n   0.05508701     Peri.  119.36535
a   6.84074235     Node   130.90801
e   0.9619078      Incl.   64.65177
P  17.89           H   23.4     G   0.15   q 0.26057850  Q 13.4209062
From 7 observations 2020 Jan. 22-24 (43.6 hr); mean residual 1".66
Residuals in arcseconds: 
200122 F51  1.0+  1.6+    200122 F51  1.0-  1.5-    200124 I52  3.0+  1.0+    
200122 F51  .43+  .42+    200124 I52  4.3-  .93-    
200122 F51  .42-  .49-    200124 I52  1.3+  .05-    

Ephemerides (geocentric):
Date (UTC) HH   RA              Dec         delta   r     elong  mag
---- -- -- --  -------------   -----------  ------ ------ -----  ---
2020 02 24 02  21 55 57.413   +09 42 11.86  .72921 .40326  20.9 25.5
2020 02 24 03  21 55 59.653   +09 40 52.45  .73059 .40234  20.9 25.5
2020 02 24 04  21 56 01.903   +09 39 32.66  .73197 .40141  20.8 25.5
2020 02 24 05  21 56 04.162   +09 38 12.49  .73335 .40049  20.8 25.5
2020 02 24 06  21 56 06.431   +09 36 51.93  .73473 .39957  20.8 25.5
2020 02 24 07  21 56 08.710   +09 35 30.98  .73611 .39865  20.8 25.5
2020 02 24 08  21 56 10.998   +09 34 09.65  .73749 .39772  20.7 25.5
2020 02 24 09  21 56 13.296   +09 32 47.92  .73887 .39680  20.7 25.5
2020 02 24 10  21 56 15.604   +09 31 25.81  .74026 .39588  20.7 25.4
2020 02 24 11  21 56 17.922   +09 30 03.30  .74164 .39497  20.7 25.4
2020 02 24 12  21 56 20.251   +09 28 40.40  .74303 .39405  20.7 25.4
2020 02 24 13  21 56 22.590   +09 27 17.11  .74442 .39313  20.6 25.4
2020 02 24 14  21 56 24.940   +09 25 53.42  .74581 .39222  20.6 25.4
2020 02 24 15  21 56 27.301   +09 24 29.33  .74720 .39130  20.6 25.4
2020 02 24 16  21 56 29.673   +09 23 04.84  .74859 .39039  20.6 25.4
2020 02 24 17  21 56 32.056   +09 21 39.95  .74999 .38948  20.5 25.4
2020 02 24 18  21 56 34.450   +09 20 14.66  .75138 .38857  20.5 25.4
2020 02 24 19  21 56 36.856   +09 18 48.97  .75277 .38766  20.5 25.4
2020 02 24 20  21 56 39.273   +09 17 22.87  .75417 .38675  20.5 25.3
2020 02 24 21  21 56 41.702   +09 15 56.37  .75557 .38584  20.4 25.3
2020 02 24 22  21 56 44.143   +09 14 29.45  .75697 .38493  20.4 25.3
2020 02 24 23  21 56 46.596   +09 13 02.13  .75837 .38403  20.4 25.3
2020 02 25 00  21 56 49.061   +09 11 34.40  .75977 .38312  20.4 25.3
2020 02 25 01  21 56 51.538   +09 10 06.25  .76117 .38222  20.3 25.3
2020 02 25 02  21 56 54.029   +09 08 37.69  .76258 .38132  20.3 25.3
2020 02 25 03  21 56 56.531   +09 07 08.72  .76398 .38042  20.3 25.3
2020 02 25 04  21 56 59.047   +09 05 39.33  .76539 .37952  20.3 25.3
2020 02 25 05  21 57 01.576   +09 04 09.52  .76680 .37862  20.2 25.2
2020 02 25 06  21 57 04.118   +09 02 39.30  .76820 .37772  20.2 25.2
2020 02 25 07  21 57 06.674   +09 01 08.65  .76961 .37682  20.2 25.2
2020 02 25 08  21 57 09.243   +08 59 37.58  .77102 .37593  20.2 25.2
2020 02 25 09  21 57 11.825   +08 58 06.08  .77244 .37504  20.1 25.2
2020 02 25 10  21 57 14.422   +08 56 34.16  .77385 .37414  20.1 25.2
2020 02 25 11  21 57 17.032   +08 55 01.82  .77527 .37325  20.1 25.2
2020 02 25 12  21 57 19.657   +08 53 29.04  .77668 .37236  20.1 25.2
2020 02 25 13  21 57 22.297   +08 51 55.84  .77810 .37148  20.0 25.2
2020 02 25 14  21 57 24.951   +08 50 22.20  .77952 .37059  20.0 25.1
2020 02 25 15  21 57 27.619   +08 48 48.13  .78094 .36970  20.0 25.1
2020 02 25 16  21 57 30.303   +08 47 13.63  .78236 .36882  20.0 25.1
2020 02 25 17  21 57 33.002   +08 45 38.69  .78378 .36794  19.9 25.1
2020 02 25 18  21 57 35.716   +08 44 03.32  .78520 .36706  19.9 25.1
2020 02 25 19  21 57 38.445   +08 42 27.50  .78663 .36618  19.9 25.1
2020 02 25 20  21 57 41.190   +08 40 51.25  .78805 .36530  19.9 25.1
2020 02 25 21  21 57 43.951   +08 39 14.55  .78948 .36442  19.8 25.1
2020 02 25 22  21 57 46.729   +08 37 37.42  .79091 .36355  19.8 25.1
2020 02 25 23  21 57 49.522   +08 35 59.83  .79234 .36268  19.8 25.0
2020 02 26 00  21 57 52.332   +08 34 21.80  .79377 .36180  19.7 25.0
2020 02 26 01  21 57 55.158   +08 32 43.33  .79520 .36094  19.7 25.0